WetterOnline ( https://www.wetteronline.de )

Wetter aktuell Göttingen

Aktuelles Wetter: Göttingen (171m)

6-stündlich | Neueste Meldungen
Ortszeit Temperatur Wetter
So, 24.01. 7:00 0.6° C leichter Schneefall
So, 24.01. 1:00 1.4° C bedeckt
Sa, 23.01. 19:00 2.4° C bewölkt
Sa, 23.01. 13:00 4.2° C wolkig
Sa, 23.01. 7:00 0.9° C bewölkt
Sa, 23.01. 1:00 0.1° C bedeckt
Fr, 22.01. 19:00 0.8° C bewölkt
Fr, 22.01. 13:00 5.3° C bewölkt
Ortszeit Temperatur Wetter
So, 24.01. 11:00 0.5° C leichter Schneefall
So, 24.01. 10:50 0.5° C leichter Schneefall
So, 24.01. 10:40 0.5° C leichter Schneefall
So, 24.01. 10:30 0.4° C leichter Schneefall
So, 24.01. 10:20 0.4° C leichter Schneefall
So, 24.01. 10:10 0.2° C leichter Schneefall
So, 24.01. 10:00 0.2° C leichter Schneefall
So, 24.01. 9:30 0.2° C Schneefall
So, 24.01. 9:00 0.1° C leichter Schneefall
So, 24.01. 8:30 0.1° C Schneefall
So, 24.01. 8:00 0.1° C leichter Schneefall
Ortszeit Relative Feuchte Sichtweite
So, 24.01. 7:00 94% 2.9 km
So, 24.01. 1:00 91% 22 km
Sa, 23.01. 19:00 91% 24 km
Sa, 23.01. 13:00 80% 35 km
Sa, 23.01. 7:00 97% 11 km
Sa, 23.01. 1:00 99% 19 km
Fr, 22.01. 19:00 95% 50 km
Fr, 22.01. 13:00 82% 60 km
Ortszeit Relative Feuchte Sichtweite
So, 24.01. 11:00 97% 2.4 km
So, 24.01. 10:50 97% -
So, 24.01. 10:40 97% -
So, 24.01. 10:30 99% 4.6 km
So, 24.01. 10:20 99% -
So, 24.01. 10:10 99% -
So, 24.01. 10:00 99% 1.6 km
So, 24.01. 9:30 99% 1.7 km
So, 24.01. 9:00 99% 1.7 km
So, 24.01. 8:30 100% 1.3 km
So, 24.01. 8:00 99% 1.7 km
Ortszeit Niederschlagsmenge Niederschlagsart
So, 24.01. 7:00 0.7 l/m2 in 12 Std. Schnee, Sprühregen
So, 24.01. 1:00 0.0 l/m2 in 6 Std. -
Sa, 23.01. 19:00 0.1 l/m2 in 12 Std. Regen
Sa, 23.01. 13:00 0.0 l/m2 in 6 Std. -
Sa, 23.01. 7:00 0.0 l/m2 in 12 Std. -
Sa, 23.01. 1:00 0.0 l/m2 in 6 Std. -
Fr, 22.01. 19:00 0.4 l/m2 in 12 Std. -
Fr, 22.01. 13:00 0.4 l/m2 in 6 Std. Regen
Ortszeit Niederschlagsmenge Niederschlagsart
So, 24.01. 11:00 0.3 l/m2 in 1 Std. Schnee
So, 24.01. 10:50 keine Meldung -
So, 24.01. 10:40 keine Meldung -
So, 24.01. 10:30 0.2 l/m2 in 1 Std. -
So, 24.01. 10:20 keine Meldung -
So, 24.01. 10:10 keine Meldung -
So, 24.01. 10:00 1.0 l/m2 in 1 Std. Schnee
So, 24.01. 9:30 0.5 l/m2 in 1 Std. -
So, 24.01. 9:00 0.9 l/m2 in 1 Std. Schnee
So, 24.01. 8:30 0.5 l/m2 in 1 Std. -
So, 24.01. 8:00 0.5 l/m2 in 1 Std. Schnee
Ortszeit Stärke Spitze Richtung
km/h Bft. km/h Grad Sektor
So, 24.01. 7:00 6 1 24 70° O
So, 24.01. 1:00 11 2 19 100° O
Sa, 23.01. 19:00 9 2 26 110° O
Sa, 23.01. 13:00 14 3 25 230° SW
Sa, 23.01. 7:00 7 2 11 130° SO
Sa, 23.01. 1:00 6 1 11 120° SO
Fr, 22.01. 19:00 4 1 25 160° S
Fr, 22.01. 13:00 13 3 41 190° S
Ortszeit Stärke Spitze Richtung
km/h Bft. km/h Grad Sektor
So, 24.01. 11:00 6 1 7 330° NW
So, 24.01. 10:50 6 1 - 330° NW
So, 24.01. 10:40 7 2 - 330° NW
So, 24.01. 10:30 6 1 6 320° NW
So, 24.01. 10:20 6 1 - 320° NW
So, 24.01. 10:10 4 1 - 320° NW
So, 24.01. 10:00 4 1 7 320° NW
So, 24.01. 9:30 2 1 4 320° NW
So, 24.01. 9:00 0 0 4 - -
So, 24.01. 8:30 2 1 4 300° NW
So, 24.01. 8:00 4 1 11 300° NW
Ortszeit Untergrenze Bedeckung Gattung
total tief tief mittel hoch
So, 24.01. 7:00 360 m 8/8 8/8 - - -
So, 24.01. 1:00 1500 m 8/8 8/8 - - -
Sa, 23.01. 19:00 540 m 8/8 7/8 - - -
Sa, 23.01. 13:00 540 m 8/8 2/8 - - -
Sa, 23.01. 7:00 900 m 7/8 7/8 - - -
Sa, 23.01. 1:00 2700 m 8/8 8/8 - - -
Fr, 22.01. 19:00 4800 m 8/8 6/8 - - -
Fr, 22.01. 13:00 660 m 7/8 7/8 - - -
Ortszeit Bedeckungsgrad in Achtel und Wolkenuntergrenze
So, 24.01. 11:00 2(60m) 8(360m)
So, 24.01. 10:50 2(60m) 8(360m)
So, 24.01. 10:40 3(60m) 8(300m)
So, 24.01. 10:30 4(30m) 8(300m) 8(570m)
So, 24.01. 10:20 4(30m) 8(300m)
So, 24.01. 10:10 3(60m) 8(270m)
So, 24.01. 10:00 3(60m) 7(210m)
So, 24.01. 9:30 7(120m) 8(270m)
So, 24.01. 9:00 1(30m) 7(210m)
So, 24.01. 8:30 1(60m) 7(270m) 7(270m)
So, 24.01. 8:00 1(60m) 7(240m) 8(630m)
Ortszeit Luftdruck NN (hPa) Tendenz (hPa in 3 Std.)
So, 24.01. 7:00 993 - 0,5
So, 24.01. 1:00 994 - 0,8
Sa, 23.01. 19:00 996 - 0,4
Sa, 23.01. 13:00 998 - 0,8
Sa, 23.01. 7:00 999 + 0,6
Sa, 23.01. 1:00 998 + 0,1
Fr, 22.01. 19:00 997 + 1,2
Fr, 22.01. 13:00 994 + 1,0
Ortszeit Luftdruck NN (hPa) Tendenz (hPa in 3 Std.)
So, 24.01. 11:00 995 + 2,0
So, 24.01. 10:50 995 keine Meldung
So, 24.01. 10:40 995 keine Meldung
So, 24.01. 10:30 995 + 1,8
So, 24.01. 10:20 995 keine Meldung
So, 24.01. 10:10 995 keine Meldung
So, 24.01. 10:00 994 + 1,7
So, 24.01. 9:30 994 + 1,5
So, 24.01. 9:00 994 + 1,0
So, 24.01. 8:30 993 + 0,6
So, 24.01. 8:00 993 + 0,2
Ortszeit Schneehöhe (cm)
So, 24.01. 7:00 0
So, 24.01. 1:00 0
Sa, 23.01. 19:00 0
Sa, 23.01. 13:00 0
Sa, 23.01. 7:00 0
Sa, 23.01. 1:00 0
Fr, 22.01. 19:00 0
Fr, 22.01. 13:00 0
Ortszeit Schneehöhe (cm)
So, 24.01. 11:00 3
So, 24.01. 10:50 3
So, 24.01. 10:40 3
So, 24.01. 10:30 3
So, 24.01. 10:20 3
So, 24.01. 10:10 3
So, 24.01. 10:00 3
So, 24.01. 9:30 2
So, 24.01. 9:00 -
So, 24.01. 8:30 0
So, 24.01. 8:00 0
Link zu dieser Seite / Seite empfehlen

Das Wetter in ...